Weather Roundup
Issued by NWS

Home | Current Version | Previous Version | Graphics & Text | Print | Product List | Glossary On
Versions: 1 2 3 4 5 6 7 8 9 10 11 12 13 14 15 16 17 18 19 20 21 22 23 24 25 26 27 28 29 30 31 32 33 34 35 36 37 38 39 40 41 42 43 44 45 46 47 48 49 50
293
NZUS93 KARX 272110
HRRWXR

CURRENT HOURLY OBSERVATIONS ACROSS
MUCH OF THE UPPER MISSISSIPPI VALLEY
NATIONAL WEATHER SERVICE LA CROSSE WI
400 PM CDT THU APR 27 2017


...SOUTHEAST MINNESOTA...


CITY           SKY/WX    TMP DP  RH WIND       PRES   REMARKS
ROCHESTER      CLOUDY    34  30  85 W16G28    29.62R WCI  24
ROCHESTER/MAYO CLOUDY    35  29  81 W16G26    29.62R WCI  25
WINONA         CLOUDY    37  32  81 NW17G24   29.63R WCI  28
AUSTIN         CLOUDY    36  28  75 W20       29.63S WCI  25
ALBERT LEA     CLOUDY    34  27  75 W12G24    29.65R WCI  25
DODGE CENTER   CLOUDY    34  28  80 W16G24    29.62R WCI  23
PRESTON        CLOUDY    35  29  80 W17       29.63R WCI  25
OWATONNA       CLOUDY    36  28  75 W17       29.64S WCI  25
FARIBAULT      CLOUDY    36  28  75 W12G17    29.64R WCI  27
$$

...ELSEWHERE IN MINNESOTA...


CITY           SKY/WX    TMP DP  RH WIND       PRES   REMARKS
MINNEAPOLIS    CLOUDY    35  24  64 W16       29.62R WCI  25
INTNL FALLS    CLOUDY    28  17  63 N14       29.56F WCI  17
DULUTH         CLOUDY    29  20  69 NW13      29.52R WCI  19
RED WING       CLOUDY    36  27  69 W14       29.61R WCI  27
REDWOOD FALLS  CLOUDY    36  24  62 NW17G24   29.67S WCI  26
MANKATO        CLOUDY    35  26  69 NW15G25   29.66R WCI  25
WORTHINGTON    CLOUDY    39  29  67 NW12      29.68S WCI  32
FAIRMONT       CLOUDY    36  27  69 NW14G24   29.68R WCI  27
$$

...SOUTHWEST WISCONSIN...


CITY           SKY/WX    TMP DP  RH WIND       PRES   REMARKS
LA CROSSE      CLOUDY    41  33  73 W15       29.61R
PRAIRIE DU CHI CLOUDY    42  31  66 W15G21    29.65R
BOSCOBEL       CLOUDY    44  32  62 W13G21    29.64R
LONE ROCK      CLOUDY    43  33  68 W14       29.62R
PLATTEVILLE    CLOUDY    41  34  76 W14G22    29.65S
FORT MC COY    CLOUDY    39  35  83 W10G17    29.60R WCI  32
CAMP DOUGLAS   CLOUDY    39  36  87 W6        29.58R WCI  35
MAUSTON-NEW LI RAIN      40  36  85 W10       29.58R WCI  34
VIROQUA        CLOUDY    38  34  82 W15G21    29.60R WCI  30
WIS DELLS      LGT RAIN  41  35  79 W15       29.59R
$$

...ELSEWHERE IN WISCONSIN...


CITY           SKY/WX    TMP DP  RH WIND       PRES   REMARKS
MILWAUKEE      LGT RAIN  45  38  76 SW14      29.63R
MADISON        CLOUDY    44  35  70 W10G18    29.60R
GREEN BAY      CLOUDY    39  34  82 W16G24    29.56R WCI  30
EAU CLAIRE     CLOUDY    34  27  75 W15       29.59R WCI  24
BLACK RVR FLS  CLOUDY    39  30  70 W10G20    29.59R WCI  32
MEDFORD        CLOUDY    31  28  87 W15       29.52R WCI  21
WAUSAU         CLOUDY    33  29  85 W13       29.52R WCI  24
WIS RAPIDS     CLOUDY    38  33  82 W13       29.57R WCI  30
MARSHFIELD     CLOUDY    34  30  85 W12G21    29.54R WCI  25
RICE LAKE      CLOUDY    31  26  80 W9        29.59R WCI  23
$$

...NORTHEAST IOWA...


CITY           SKY/WX    TMP DP  RH WIND       PRES   REMARKS
WATERLOO       CLOUDY    40  28  62 W17       29.69R WCI  31
DUBUQUE        CLOUDY    40  31  70 W20       29.66S WCI  30
DECORAH        CLOUDY    37  30  75 W14G23    29.63R WCI  29
MASON CITY     CLOUDY    37  28  70 W18       29.68R WCI  27
CHARLES CITY   CLOUDY    37  28  70 W17       29.67S WCI  28
OELWEIN        CLOUDY    39  30  70 W21G26    29.68R WCI  29
$$

...ELSEWHERE IN IOWA...


CITY           SKY/WX    TMP DP  RH WIND       PRES   REMARKS
DES MOINES     PTSUNNY   56  34  43 W14       29.68F
IOWA CITY      CLOUDY    46  34  62 W16G22    29.73R
FORT DODGE     CLOUDY    41  30  65 W9        29.71S
MARSHALLTOWN   CLOUDY    43  32  65 W18G26    29.70R
CEDAR RAPIDS   CLOUDY    43  35  73 W16       29.69R
$$

...NORTHERN ILLINOIS...


CITY           SKY/WX    TMP DP  RH WIND       PRES   REMARKS
CHICAGO-OHARE  CLOUDY    46  37  71 W17G30    29.68R
CHICAGO-MIDWAY CLOUDY    47  39  74 SW12G21   29.70R
MOLINE         CLOUDY    45  35  68 SW13G23   29.73R
ROCKFORD       CLOUDY    43  35  73 W17G25    29.70R
PEORIA         CLOUDY    50  39  66 W16       29.75R
$$

NOTE: "FAIR" INDICATES FEW OR NO CLOUDS BELOW 12,000 FEET WITH NO
SIGNIFICANT WEATHER AND/OR OBSTRUCTIONS TO VISIBILITY. WIND
SPEEDS ARE IN MILES-PER-HOUR.




USA.gov is the U.S. government's official web portal to all federal, state and local government web resources and services.